Regional Weather Roundup
Issued by NWS

Home | Current Version | Previous Version | Text Only | Print | Product List | Glossary On
Versions: 1 2 3 4 5 6 7 8 9 10 11 12 13 14 15 16 17 18 19 20 21 22 23 24 25 26 27 28 29 30 31 32 33 34 35 36 37 38 39 40 41 42 43 44 45 46 47 48 49 50
000
ASUS46 KLOX 210612
RWRCA

SOUTHERN CALIFORNIA WEATHER ROUNDUP
NATIONAL WEATHER SERVICE OXNARD CALIFORNIA
1100 PM PDT MON APR 20 2015

NOTE: "FAIR" INDICATES FEW OR NO CLOUDS BELOW 12,000 FEET WITH NO
SIGNIFICANT WEATHER AND/OR OBSTRUCTIONS TO VISIBILITY.

  -  STATIONS PRECEEDED BY AN ASTERISK (*) ARE NOT NWS OR FAA
     STATIONS AND ARE NOT SUBJECT TO NWS AND FAA QUALITY CONTROL.

CAZ041-042-087-210700-
LA AND ORANGE COUNTY COASTAL AREAS


CITY           SKY/WX    TMP DP  RH WIND       PRES   REMARKS
L.A. DOWNTOWN  CLEAR     57  51  80 CALM      29.90R
L.A. AIRPORT   MOCLDY    57  52  83 SW3       29.91R
LONG BEACH     MOCLDY    59  51  75 S6        29.91R

CITY           SKY/WX    TMP DP  RH WIND       PRES   REMARKS
AVALON           N/A     59 N/A N/A MISG        N/A
FULLERTON      CLOUDY    60  32  34 S5        29.90S
*GETTY CENTER    N/A     52  50  93 S3          N/A
HAWTHORNE      CLEAR     60  51  72 SW5       29.91R
*LEO CARRILLO    N/A     53  47  81 N6          N/A
*LOS ALAMITOS  CLOUDY    59  52  77 SW6       29.91S
*REDONDO BEACH   N/A     56  50  78 CALM      29.91R
SANTA ANA      CLOUDY    60  51  72 W3        29.91S
STA MONICA APT CLOUDY    59  51  75 SW3       29.91R
*UCLA            N/A     55  50  82 CALM      29.88R

$$

CAZ547-548-048-210700-
LA COUNTY VALLEYS AND INLAND EMPIRE


CITY           SKY/WX    TMP DP  RH WIND       PRES   REMARKS
BURBANK        PTCLDY    56  50  80 S5        29.90R
VAN NUYS       CLEAR     56  50  80 SE6       29.89R

CITY           SKY/WX    TMP DP  RH WIND       PRES   REMARKS
CORONA AIRPORT CLEAR     55  50  83 CALM      29.91R
*CHATSWORTH      N/A     56  49  77 CALM      29.90R
CHINO          CLEAR     56  49  77 W9        29.91S
MARCH AFB      CLEAR     53  49  84 SE7       29.90S
*NORTHRIDGE      N/A     55  48  76 E2          N/A
ONTARIO        CLEAR     56  49  77 W7        29.90R
*PASADENA        N/A     57  52  82 CALM        N/A
RIVERSIDE      CLEAR     57  49  74 VRB5      29.90S
SAN BERNARDINO NOT AVBL
*SAN RAFAEL HI   N/A     50  44  81 S3          N/A
*SAUGUS          N/A     58  48  69 SW6         N/A
*WHITEMAN AP   NOT AVBL
*WHITTIER HILL   N/A     50  50 100 SE3         N/A
*WOODLAND HILL   N/A     54  48  82 SE2         N/A

$$

CAZ054-055-210700-
LA AND SAN BERNARDINO COUNTY MOUNTAINS


CITY           SKY/WX    TMP DP  RH WIND       PRES   REMARKS
*BIG BEAR AIRP CLEAR     36  19  51 CALM      30.01S
MT WILSON NWS    N/A     50  10  20 SW2         N/A
SANDBERG       PTCLDY    51  34  52 SW6       29.93S
*WARM SPRINGS    N/A     48  43  82 SW7         N/A

$$

CAZ028-029-059-060-099-210700-
ANTELOPE VALLEY AND SURROUNDING AREAS


CITY           SKY/WX    TMP DP  RH WIND       PRES   REMARKS
LANCASTER      CLEAR     59  37  44 SW16      29.83S
PALMDALE       CLEAR     62  30  29 SW15      29.84S
*POPPY PARK      N/A     57  35  44 SW17        N/A

CITY           SKY/WX    TMP DP  RH WIND       PRES   REMARKS
29 PALMS       CLEAR     68  34  28 SW9       29.85S
BARSTOW/DAGGET CLEAR     70  31  23 W7        29.79S
BISHOP         PTCLDY    65  22  19 N13       29.85R
CHINA LAKE     CLEAR     70  38  31 S14       29.75R
EDWARDS AFB    CLEAR     61  38  42 SW15      29.80S
MOJAVE         FAIR      66  39  37 W12G18    29.82S
NEEDLES        CLEAR     80  19  10 W13       29.72S
VICTORVILLE    CLEAR     59  36  41 S10       29.87S

$$

CAZ039-040-210700-
VENTURA AND SANTA BARBARA COUNTY COAST


CITY           SKY/WX    TMP DP  RH WIND       PRES   REMARKS
CAMARILLO      PTCLDY    56  50  80 CALM      29.89S
NWS OXNARD       N/A     56  50  82 CALM      29.89R
OXNARD AIRPORT PTCLDY    57  51  80 W3        29.89S
*POINT MUGU    PTCLDY    56  50  80 CALM      29.91R
SBA APT/GOLETA CLEAR     56  52  86 E8        29.87R
*SANTA BARBARA   N/A     58  51  76 CALM      29.96S
*VENTURA         N/A     58  51  79 CALM      29.93S

$$

CAZ044-045-210700-
VENTURA COUNTY VALLEYS


CITY           SKY/WX    TMP DP  RH WIND       PRES   REMARKS
*SIMI VALLEY     N/A     54  49  83 CALM      29.85S
*OJAI            N/A     50  46  85 CALM      29.85R
*FILLMORE        N/A     54  47  77 CALM      29.80S

$$

CAZ053-210700-
VENTURA COUNTY MOUNTAINS


CITY           SKY/WX    TMP DP  RH WIND       PRES   REMARKS
*LOCKWOOD VLY    N/A     45 -99   0 MISG        N/A
*ROSE VALLEY     N/A     46  43  87 MISG        N/A

$$

CAZ034-035-036-210700-
CENTRAL COAST AND SANTA YNEZ VALLEY


CITY           SKY/WX    TMP DP  RH WIND       PRES   REMARKS
SAN LUIS OBISP CLOUDY    54  48  80 NW8       29.89F
SANTA MARIA    CLOUDY    54  49  83 W6        29.90S

CITY           SKY/WX    TMP DP  RH WIND       PRES   REMARKS
*CAL POLY SLO    N/A     54  50  87 NW3G10      N/A
*LOMPOC        CLOUDY    54  46  76 CALM      29.91S
*PISMO BEACH     N/A     55  49  82 CALM      29.90S
*SANTA YNEZ    CLOUDY    52  46  82 W3        29.90S

$$

CAZ037-038-051-210700-
SAN LUIS OBISPO COUNTY INTERIOR AND CUYAMA VALLEY


CITY           SKY/WX    TMP DP  RH WIND       PRES   REMARKS
*CUYAMA          N/A     55  44  67 CALM      29.80R
PASO ROBLES    PTCLDY    52  46  80 SW12      29.86S

$$

CAZ032-033-061-210700-
SOUTHERN DESERTS


CITY           SKY/WX    TMP DP  RH WIND       PRES   REMARKS
BLYTHE         CLEAR     76  23  14 S8        29.73S
IMPERIAL       CLEAR     66  47  50 W6        29.72S
PALM SPRINGS   CLEAR     72  45  37 NW14      29.75S
THERMAL        CLEAR     73  46  38 NW15      29.71R

$$

ELSEWHERE ACROSS THE WESTERN UNITED STATES AND MEXICO


CITY           SKY/WX    TMP DP  RH WIND       PRES   REMARKS
DENVER, CO     PTCLDY    35  33  92 S10       29.95F WCI  27
GRAND CANYON,  MOCLDY    33  15  47 CALM      30.02R
HONOLULU, HI   PTCLDY    75  63  64 NE13G25   30.06R
KAHULUI, MAUI  RAIN      72  64  78 NE15G22   30.07R
LAKE TAHOE, CA CLEAR     43  26  51 S6        29.99F
LAS VEGAS, NV  PTCLDY    76  16  10 S10       29.72S
MAMMOTH LAKES, FAIR      52  21  30 NW5       30.04S
MEXICO CITY, M CLEAR     70  46  43 W5        30.26S
PHOENIX, AZ    CLEAR     80  25  13 W13       29.75R
PORTLAND, OR   PTCLDY    60  44  55 NW8       29.84R
RENO, NV       PTCLDY    62  26  25 CALM      29.91S
SALT LAKE CITY CLEAR     53  26  35 S7        29.87F
SAN DIEGO, CA  MOCLDY    62  48  60 SW6       29.93F
SAN FRANCISCO, PTCLDY    55  51  86 W10       29.87S
SAN JOSE, CA   MOCLDY    56  48  74 NW6       29.87S
SEATTLE, WA    PTCLDY    63  38  39 NE10      29.86S
TIJUANA, MEX   MOCLDY    55  46  71 W6        29.94S

$$

STATION/POSITION TIME  TEMP    WIND        PRES    VSBY  WAVE
                       AIR SEA DIR/SP/G                  HT/PER
                 (UTC) (F)     (DEG/KT/KT) (MB)    (MI)  (FT/S)
POINT ARGUELLO B NOT AVBL
WEST SANTA BARBA 0600   55 55  330/ 12/ 17 1011.7R         5/13
POINT CONCEPTION NOT AVBL
EAST SANTA BARBA NOT AVBL
SANTA MONICA BAY 0600   58 62  250/  6/ 10 1012.6R         3/14


USA.gov is the U.S. government's official web portal to all federal, state and local government web resources and services.